User: anonymous   Login
Location: Unspecified
(0.0000°N, 0.0000°E)
Time: 16:43:07
(UTC+00:00)
Language:

NOSS 2-2 (C) - Orbit

View from above orbital plane
View from above orbital plane
View from above satellite
View from above satellite

Ground track
Ground track

The orbit data is extracted from the following two-line orbital elements,

1 21799U 91076C   20034.17379931 0.00000000  00000-0  00000-0 0    03
2 21799  63.3272 133.8980 0829252  36.8019 323.1981 13.41288636    09
Epoch (UTC): 03 February 2020 04:10:16
Eccentricity: 0.0829252
inclination: 63.3272°
perigee height: 484 km
apogee height: 1725 km
right ascension of ascending node: 133.8980°
argument of perigee: 36.8019°
revolutions per day: 13.41288636
mean anomaly at epoch: 323.1981°
orbit number at epoch: 0

The dashed part of the orbit path shows where the satellite is in the earth's shadow,  

DLR